Location: Newark
(52.8300°N, 8.0000°E)
Time: 09:43:41
(UTC+00:00)

STARLINK-1074 - Pass Details

Date: 01 February 2020
Orbit: 349 x 350 km, 53.0° (Epoch: 19 February)

Event Time Altitude Azimuth Distance (km) Brightness Sun altitude
Rises 17:26:58 0° 282° (WNW) 2,162 8.0 -11.4°
Reaches altitude 10° 17:29:18 10° 264° (W) 1,316 7.1 -11.7°
Maximum altitude 17:31:32 20° 215° (SW) 889 5.3 -12.1°
Drops below altitude 10° 17:33:46 10° 165° (SSE) 1,310 5.5 -12.4°
Enters shadow 17:35:57 - 148° (SSE) 2,100 6.4 -12.7°
